AirNav   Air Wisconsin Up To $57,000 Bonus
 
 529 users online  

23TA Rowland R Airfield
Tom Bean, Texas, USA

GOING TO TOM BEAN?


FAA INFORMATION EFFECTIVE 18 JULY 2019

Location

FAA Identifier: 23TA
Lat/Long: 33-29-14.3910N / 096-27-20.9450W
33-29.239850N / 096-27.349083W
33.4873308 / -96.4558181
(estimated)
Elevation: 705 ft. / 215 m (estimated)
Variation: 06E (1985)
From city: 3 miles SE of TOM BEAN, TX
Time zone: UTC -5 (UTC -6 during Standard Time)
Zip code: 75491

Airport Operations

Airport use: Private use. Permission required prior to landing
Activation date: 03/1982
Control tower: no
ARTCC: FORT WORTH CENTER
FSS: FORT WORTH FLIGHT SERVICE STATION
Attendance: UNATNDD
Wind indicator: yes
Segmented circle: no

Airport Communications

WX AWOS-3PT at F00 (16 nm NE): 118.05 (903-583-2082)
WX AWOS-3 at GYI (17 nm NW): 118.775 (903-786-7790)
WX ASOS at TKI (20 nm S): 119.925 (972-548-8525)

Nearby radio navigation aids

VOR radial/distance  VOR name  Freq  Var
BYPr249/11.5BONHAM VORTAC114.6006E
URHr182/27.6TEXOMA VOR/DME114.3005E

 
NDB name  Hdg/Dist  Freq  Var  ID
DENISON146/23.034106EDNI -.. -. ..
CADDO MILLS333/28.831606EMII -- .. ..

Airport Services

Runway Information

Runway 1/19

Dimensions: 2000 x 150 ft. / 610 x 46 m
Surface: turf
RUNWAY 1  RUNWAY 19
Traffic pattern: leftleft
Obstructions: 100 ft. trees, 200 ft. from runway75 ft. trees, 400 ft. from runway

Airport Ownership and Management from official FAA records

Ownership: Privately-owned
Owner: ROWLAND R. AIRFIELD, LLC
115 ROWLAND DRIVE
WHITEWRIGHT, TX 75491
Phone (903) 436-0155
Manager: C. STUART ROWLAND
115 ROWLAND DRIVE
WHITEWRIGHT, TX 75491
Phone (903) 436-0155

Airport Operational Statistics

Aircraft based on the field: 2
Single engine airplanes: 2
    

Additional Remarks

FOR CD CTC FORT WORTH ARTCC AT 817-858-7584.

Instrument Procedures

There are no published instrument procedures at 23TA.

Some nearby airports with instrument procedures:

KSWI - Sherman Municipal Airport (10 nm NW)
F00 - Jones Field Airport (16 nm NE)
KGYI - North Texas Regional Airport/Perrin Field (17 nm NW)
KTKI - McKinney National Airport (20 nm S)
KDUA - Durant Regional Airport - Eaker Field (27 nm N)
 
Loc | Ops | Rwys | IFR | FBO | Links
Com | Nav | Svcs | Stats | Notes
Area around 23TA (Rowland R Airfield)
 
Road maps at: MapQuest Bing Google
 
Aerial photo
No photo
 
Sectional chart

 
Airport distance calculator
Flying to Rowland R Airfield? Find the distance to fly.

From to 23TA

Sunrise and sunset
Times for 20-Jul-2019
 Local
(UTC-5)
 Zulu
(UTC)
Morning civil twilight06:0311:03
Sunrise06:3111:31
Sunset20:3301:33
Evening civil twilight21:0102:01

Current date and time
Zulu (UTC)  20-Jul-2019 10:13:56
Local (UTC-5)  20-Jul-2019 05:13:56
 
METAR
KF00 
16nm NE 
200955Z AUTO 18008KT 10SM CLR 26/23 A2993 RMK AO2 T02580231
KGYI 
17nm NW 
200955Z AUTO 17007KT 10SM CLR 27/23 A2993 RMK AO2 T02650233
KTKI 
19nm S 
200953Z AUTO 19011KT 10SM CLR 27/23 A2993 RMK AO2 SLP126 T02670228
KDUA 
28nm N 
200953Z AUTO 18005KT 10SM CLR 26/22 A2993 RMK AO2
TAF
KDAL 
43nm SW 
200520Z 2006/2106 17017KT P6SM FEW050 SCT250
KDFW 
45nm SW 
200520Z 2006/2112 17017KT P6SM FEW050 SCT250
NOTAMs
Click for the latest NOTAMs
NOTAMs are issued by the DoD/FAA and will open in a separate window not controlled by AirNav.

 

 
 

Would you like to see your business listed on this page?

 If your business provides an interesting product or service to pilots, flight crews, aircraft, or users of the Rowland R Airfield, you should consider listing it here.  To start the listing process, click on the button below
 
Add a business
 

Other Pages about Rowland R Airfield

Update a link
 
Copyright © AirNav, LLC. All rights reserved. Privacy Policy  Contact